Location: ?
(35.3544°N, 139.4507°E)
Time: 13:54:44
(UTC+00:00)

COSMOS 2428 - Pass Details

Date: 03 August 2024
Orbit: 842 x 857 km, 70.9° (Epoch: 12 September)

Event Time Altitude Azimuth Distance (km) Brightness Sun altitude
Exits shadow 17:11:29 32° 134° (SE) 1,400 3.7 -27.4°
Maximum altitude 17:12:50 37° 104° (ESE) 1,288 3.8 -27.2°
Drops below altitude 10° 17:17:59 10° 39° (NE) 2,474 6.1 -26.6°
Sets 17:20:36 0° 31° (NNE) 3,415 7.1 -26.2°
